Вернуться в каталог

GHGSAT-C3

АктивенНаукаSSO
NORAD 52737·PAYLOAD·🇨🇦 Canada

Запущен May 25, 2022 с Cape Canaveral Space Force Station

Loading…

Ближайшие Пролёты (ближайшие 24 часа)

TLE

СвежийSource: Space-Track

Эпоха: Sep 14, 2026, 14:54 UTC

1 52737U 22057F   26257.62125249  .00005672  00000-0  16778-3 0  9995
2 52737  97.6727  46.7655 0006379 152.3530 207.8053 15.35325149239255

Отслеживайте GHGSAT-C3 в реальном времени с AllMySat

Download on the App Store